Date String (YYYY-MM-DD hh:mm:ss) UTC,Instrument flags,absolute air pressure of the measurement (hPa),sample flow rate (lpm),inlet stack bypass flow (lpm),air temperature of the measurement (°C),ambient temperature measured by the external sensor (°C),aerosol sample conditioner tube jacket temperature (°C),OPC LED temperature (°C),internal box temperature (°C),relative humidity of the measurement (%),span deviation,mass concentration of particles derived from Lorenz-Mie calculation of OPC scattering (μg/m³),mass concentration of particles derived from Lorenz-Mie calculation of OPC scattering (μg/m³),mass concentration of particles derived from Lorenz-Mie calculation of OPC scattering (μg/m³)
DateTimeUTC,F1_M11,P_M11,Q1_M11,Q2_M11,T1_M11,T2_M11,T3_M11,T4_M11,T5_M11,U1_M11,ZSPAN_M11,X0_M11,X2_M11,X1_M11
2023-06-30 05:00:00,SystemResetWarning,0834.5,5.01,000.00,029.9,028.8,000.0,038.4,031.5,30.2,0000.0,0016.43,0004.44,0003.26
2023-06-30 05:01:00,SystemResetWarning,0834.5,5.01,000.00,029.9,028.8,000.0,038.4,031.5,30.3,0000.0,0016.36,0004.38,0003.23
2023-06-30 05:02:00,SystemResetWarning,0834.5,5.00,000.00,030.0,028.8,000.0,038.4,031.5,30.3,0000.0,0017.00,0004.35,0003.19
2023-06-30 05:03:00,SystemResetWarning,0834.5,4.99,000.00,030.0,028.8,000.0,038.4,031.6,30.4,0000.0,0016.56,0004.27,0003.14
2023-06-30 05:04:00,SystemResetWarning,0834.5,5.00,000.00,030.0,028.9,000.0,038.5,031.6,30.5,0000.0,0017.16,0004.21,0003.03
2023-06-30 05:05:00,SystemResetWarning,0835.0,5.01,000.00,030.0,028.9,000.0,038.5,031.6,30.5,0000.0,0016.73,0004.11,0002.92
2023-06-30 05:06:00,SystemResetWarning,0835.1,5.01,000.00,030.0,028.9,000.0,038.5,031.6,30.6,0000.0,0016.22,0004.03,0002.82
2023-06-30 05:07:00,SystemResetWarning,0835.0,4.99,000.00,030.0,027.9,000.0,038.5,031.5,30.7,0000.0,0015.70,0003.94,0002.73
2023-06-30 05:08:00,SystemResetWarning,0835.0,5.00,000.00,030.0,026.1,000.0,038.3,031.3,30.8,0000.0,0016.27,0003.91,0002.66
2023-06-30 05:09:00,SystemResetWarning,0834.5,5.02,000.00,029.9,025.4,000.0,038.2,031.1,31.1,0000.0,0015.21,0003.81,0002.60
2023-06-30 05:10:00,SystemResetWarning,0834.5,4.99,000.00,029.7,025.6,000.0,038.3,030.8,31.3,0000.0,0015.22,0003.73,0002.51
2023-06-30 05:11:00,SystemResetWarning,0834.9,5.01,000.00,029.6,025.9,000.0,038.3,030.8,31.5,0000.0,0015.03,0003.69,0002.45
2023-06-30 05:12:00,SystemResetWarning,0835.1,5.01,000.00,029.6,026.3,000.0,038.3,030.9,31.7,0000.0,0014.95,0003.68,0002.40
2023-06-30 05:13:00,SystemResetWarning,0835.1,5.00,000.00,029.6,026.7,000.0,038.3,030.9,31.6,0000.0,0013.90,0003.61,0002.35
2023-06-30 05:14:00,SystemResetWarning,0835.0,4.99,000.00,029.6,027.1,000.0,038.3,031.0,31.3,0000.0,0013.10,0003.54,0002.29
2023-06-30 05:15:00,SystemResetWarning,0835.0,5.00,000.00,029.6,027.3,000.0,038.3,031.0,31.0,0000.0,0012.20,0003.46,0002.24
2023-06-30 05:16:00,SystemResetWarning,0834.9,5.00,000.00,029.6,027.6,000.0,038.3,031.1,30.9,0000.0,0011.76,0003.42,0002.21
2023-06-30 05:17:00,SystemResetWarning,0835.0,4.99,000.00,029.6,027.8,000.0,038.2,031.1,30.8,0000.0,0011.39,0003.40,0002.17
2023-06-30 05:18:00,SystemResetWarning,0835.0,5.01,000.00,029.6,027.9,000.0,038.2,031.1,30.4,0000.0,0011.16,0003.37,0002.13
2023-06-30 05:19:00,SystemResetWarning,0835.0,5.02,000.00,029.6,028.0,000.0,038.2,031.2,29.9,0000.0,0009.62,0003.30,0002.10
2023-06-30 05:20:00,SystemResetWarning,0834.7,4.99,000.00,029.6,028.2,000.0,038.2,031.2,29.4,0000.0,0009.54,0003.30,0002.08
2023-06-30 05:21:00,SystemResetWarning,0834.9,5.00,000.00,029.6,028.2,000.0,038.2,031.2,29.1,0000.0,0009.24,0003.35,0002.06
2023-06-30 05:22:00,SystemResetWarning,0834.9,5.00,000.00,029.7,028.3,000.0,038.3,031.3,28.6,0000.0,0009.44,0003.37,0002.04
2023-06-30 05:23:00,SystemResetWarning,0834.7,5.00,000.00,029.7,028.4,000.0,038.3,031.3,27.3,0000.0,0009.37,0003.36,0002.03
2023-06-30 05:24:00,SystemResetWarning,0834.9,4.99,000.00,029.7,028.4,000.0,038.3,031.3,26.6,0000.0,0009.50,0003.37,0001.99
2023-06-30 05:25:00,SystemResetWarning,0835.0,5.00,000.00,029.7,028.5,000.0,038.3,031.3,26.0,0000.0,0009.69,0003.40,0001.94
2023-06-30 05:26:00,SystemResetWarning,0834.9,5.00,000.00,029.7,028.5,000.0,038.3,031.3,25.2,0000.0,0010.39,0003.42,0001.89
2023-06-30 05:27:00,SystemResetWarning,0834.9,5.01,000.00,029.8,028.6,000.0,038.3,031.4,24.3,0000.0,0010.79,0003.42,0001.82
2023-06-30 05:28:00,SystemResetWarning,0834.6,5.00,000.00,029.8,028.6,000.0,038.3,031.4,23.9,0000.0,0010.91,0003.41,0001.74
2023-06-30 05:29:00,SystemResetWarning,0834.9,5.00,000.00,029.8,028.6,000.0,038.3,031.4,23.0,0000.0,0012.14,0003.42,0001.66
2023-06-30 05:30:00,SystemResetWarning,0834.8,5.01,000.00,029.8,028.6,000.0,038.3,031.4,22.7,0000.0,0013.87,0003.45,0001.56
2023-06-30 05:31:00,SystemResetWarning,0835.1,5.00,000.00,029.8,028.6,000.0,038.4,031.4,22.6,0000.0,0017.70,0003.46,0001.45
2023-06-30 05:32:00,SystemResetWarning,0834.7,4.99,000.00,029.9,028.6,000.0,038.4,031.5,22.4,0000.0,0019.72,0003.46,0001.35
2023-06-30 05:33:00,SystemResetWarning,0834.8,5.00,000.00,029.9,028.7,000.0,038.4,031.4,22.6,0000.0,0020.81,0003.41,0001.25
2023-06-30 05:34:00,SystemResetWarning,0834.8,5.01,000.00,029.9,028.7,000.0,038.4,031.4,22.4,0000.0,0022.20,0003.43,0001.14
2023-06-30 05:35:00,SystemResetWarning,0834.8,5.00,000.00,029.9,028.7,000.0,038.4,031.5,22.2,0000.0,0023.93,0003.44,0001.05
2023-06-30 05:36:00,SystemResetWarning,0834.8,4.99,000.00,029.9,028.7,000.0,038.4,031.5,22.0,0000.0,0024.98,0003.42,0000.99
2023-06-30 05:37:00,SystemResetWarning,0834.7,4.99,000.00,029.9,028.7,000.0,038.5,031.5,22.0,0000.0,0024.51,0003.38,0000.92
2023-06-30 05:38:00,SystemResetWarning,0834.7,4.99,000.00,029.9,028.7,000.0,038.5,031.5,22.2,0000.0,0025.04,0003.33,0000.87
2023-06-30 05:39:00,SystemResetWarning,0834.8,5.01,000.00,030.0,028.7,000.0,038.5,031.5,22.3,0000.0,0025.65,0003.33,0000.85
2023-06-30 05:40:00,SystemResetWarning,0835.0,5.01,000.00,030.0,028.8,000.0,038.5,031.5,22.0,0000.0,0025.49,0003.30,0000.82
2023-06-30 05:41:00,SystemResetWarning,0834.9,5.00,000.00,030.0,028.8,000.0,038.5,031.6,21.9,0000.0,0023.74,0003.25,0000.80
2023-06-30 05:42:00,SystemResetWarning,0834.8,4.99,000.00,030.0,028.8,000.0,038.5,031.5,21.9,0000.0,0020.33,0003.21,0000.78
2023-06-30 05:43:00,SystemResetWarning,0834.9,5.01,000.00,030.0,028.8,000.0,038.5,031.6,21.9,0000.0,0018.27,0003.17,0000.78
2023-06-30 05:44:00,SystemResetWarning,0834.9,5.01,000.00,030.0,028.8,000.0,038.6,031.6,21.8,0000.0,0017.04,0003.13,0000.77
2023-06-30 05:45:00,SystemResetWarning,0834.8,5.00,000.00,030.0,028.8,000.0,038.6,031.6,21.7,0000.0,0015.79,0003.02,0000.76
2023-06-30 05:46:00,SystemResetWarning,0835.1,5.00,000.00,030.0,028.8,000.0,038.6,031.6,21.9,0000.0,0014.98,0002.92,0000.75
2023-06-30 05:47:00,SystemResetWarning,0834.8,4.99,000.00,030.0,028.8,000.0,038.6,031.6,22.0,0000.0,0013.01,0002.82,0000.75
2023-06-30 05:48:00,SystemResetWarning,0834.7,5.00,000.00,030.1,028.8,000.0,038.6,031.6,22.1,0000.0,0012.91,0002.76,0000.76
2023-06-30 05:49:00,SystemResetWarning,0834.9,5.00,000.00,030.1,028.8,000.0,038.6,031.6,22.1,0000.0,0012.31,0002.81,0000.77
2023-06-30 05:50:00,SystemResetWarning,0834.7,5.00,000.00,030.1,028.8,000.0,038.6,031.6,22.1,0000.0,0011.91,0002.76,0000.75
2023-06-30 05:51:00,SystemResetWarning,0834.7,5.00,000.00,030.1,028.8,000.0,038.6,031.6,22.1,0000.0,0010.83,0002.75,0000.74
2023-06-30 05:52:00,SystemResetWarning,0834.9,4.99,000.00,030.1,028.8,000.0,038.7,031.6,22.2,0000.0,0010.42,0002.78,0000.74
2023-06-30 05:53:00,SystemResetWarning,0834.9,5.00,000.00,030.1,028.8,000.0,038.7,031.7,22.2,0000.0,0010.07,0002.72,0000.74
2023-06-30 05:54:00,SystemResetWarning,0834.7,5.01,000.00,030.1,028.8,000.0,038.7,031.7,22.2,0000.0,0010.08,0002.74,0000.72
2023-06-30 05:55:00,SystemResetWarning,0834.8,5.00,000.00,030.1,028.8,000.0,038.7,031.6,22.3,0000.0,0010.17,0002.64,0000.71
2023-06-30 05:56:00,SystemResetWarning,0834.8,4.99,000.00,030.1,028.8,000.0,038.7,031.7,22.3,0000.0,0009.87,0002.55,0000.69
2023-06-30 05:57:00,SystemResetWarning,0834.5,5.00,000.00,030.1,028.8,000.0,038.7,031.7,22.3,0000.0,0009.07,0002.47,0000.69
2023-06-30 05:58:00,SystemResetWarning,0834.4,5.00,000.00,030.1,028.8,000.0,038.7,031.7,22.2,0000.0,0009.48,0002.36,0000.68
2023-06-30 05:59:00,SystemResetWarning,0834.5,5.00,000.00,030.1,028.8,000.0,038.7,031.7,22.2,0000.0,0009.22,0002.26,0000.67
